sat.trackr.live / text

‹ back to catalog

ZHONGXING-6C

NORAD 44067 · 2019-012A

PAYLOAD ACTIVE UNKNOWN

§ Identity

Operator
Country
PRC
Launch date
2019-03-09
Launch site
XICLF
Launch vehicle
Mass (kg)
RCS (m²)

Purposes: comms

External: N2YO · Heavens-Above · Gunter

§ Orbital elements

Epoch: 2026-09-20T00:26:08.374272Z

Period
1,436.06 min
Inclination
0.0392°
Eccentricity
0.0014105
Mean motion
1.00274050 rev/d
Perigee alt
35,726.5 km
Apogee alt
35,845.4 km
Semi-major
42,164.1 km
B*
0.0000e+0
RAAN
327.3980°
Arg perigee
97.5167°
Mean anomaly
70.9906°
Rev number
2,769

§ Raw data

ZHONGXING-6C1 44067U 19012A   26263.01815248 -.00000339  00000+0  00000+0 0  99962 44067   0.0392 327.3980 0014105  97.5167  70.9906  1.00274050 27699

JSON: /api/v1/satellites/44067 · /tle

For live sub-satellite position, see the globe view (requires WebGL).

§ Visibility from observer

Set your observer location to see the next 7 days of passes ≥ 10°. The values pass through the URL so the page stays shareable.

No JS? Fill the form by hand. The geolocation button needs JavaScript.